[[{"header":{"parameterUnit":"m.s-1","parameterCategory":1,"la1":30.2991,"la2":30.254,"lo1":-89.0895,"lo2":-89.0444,"dy":0.0017,"dx":0.0017,"nx":28,"ny":28,"refTime":"2025-04-25T09:00:00:Z","depth":0,"parameterNumber":2,"parameterNumberName":"U-component_of_WINDS"},"data":[0,0,0,0,0,0,0,0,0,0,0,0,0,0,0,0,0,0,0,0,0,0,0,0,0,0,0,0,0,0,0,0,0,0,0,0,0,0,0,0,0,0,0,0,0,0,0,0,0,0,0,0,0,0,0,0,0,0,1.2994,1.2994,0,1.3083,1.3084,1.3085,1.3092,1.3091,1.309,1.309,1.3182,1.3185,1.3188,0,0,0,0,0,0,0,0,0,0,0,0,0,1.283,1.2833,1.2993,1.2995,1.2996,1.3083,1.3084,1.3085,1.3093,1.3091,1.309,1.3089,1.3181,1.3184,1.3188,0,0,0,0,0,0,0,0,0,0,0,0,0,1.2908,1.2834,1.2993,1.301,1.3012,1.3082,1.3084,1.3085,1.3093,1.3091,1.309,1.3089,1.3179,1.3184,1.3189,1.3249,0,0,1.3204,1.3207,0,0,0,0,0,0,0,0,1.2904,1.2914,1.3006,1.3009,1.3012,1.3075,1.306,1.314,1.3093,1.3062,1.309,1.3088,1.3147,1.3155,1.3175,1.3253,1.3257,1.3205,1.3208,1.321,1.3211,0,0,0,0,0,0,0,1.2898,1.291,1.3029,1.3008,1.3011,1.3013,1.3022,1.3075,1.3112,1.3065,1.3066,1.3076,1.3149,1.317,1.3177,1.3258,1.3205,1.3209,1.3212,1.3214,1.339,1.3391,0,0,0,0,0,0,1.2889,1.2906,1.3026,1.3031,1.2953,1.3017,1.3028,1.3056,1.3111,1.3118,1.3077,1.3076,1.3162,1.3171,1.318,1.3253,1.321,1.3215,1.3218,1.3388,1.339,1.3392,0,0,0,0,0,0,1.2886,1.29,1.3022,1.2969,1.2985,1.3021,1.3053,1.3059,1.308,1.3121,1.3127,1.3092,1.3161,1.3173,1.3232,1.3257,1.3217,1.3222,1.3386,1.3389,1.3391,1.34,0,0,0,0,0,0,1.2881,1.2899,1.2922,1.2969,1.2987,1.3072,1.3055,1.3061,1.3089,1.3088,1.3137,1.3143,1.3161,1.3224,1.3237,1.3263,1.3225,1.3384,1.3387,1.339,1.3398,1.3403,1.3407,0,0,0,0,0,1.2875,1.2921,1.2923,1.2937,1.3017,1.3073,1.3084,1.3103,1.3091,1.3114,1.314,1.3142,1.3252,1.323,1.3244,1.3272,1.3383,1.3386,1.339,1.3396,1.3402,1.3407,0,0,0,0,0,0,1.2876,1.2928,1.293,1.2993,1.3029,1.3075,1.3105,1.3109,1.3149,1.3147,1.317,1.3181,1.3238,1.3261,1.3236,1.3333,1.3316,1.3323,1.3316,1.3322,1.3326,1.3319,1.323,0,0,0,0,0,1.2883,1.2925,1.2968,1.3019,1.3037,1.3068,1.3093,1.3105,1.3143,1.3158,1.3189,1.3226,1.3269,1.3296,1.3338,1.3401,1.3412,1.3428,1.3432,1.3436,1.3441,1.3476,1.3483,1.3404,1.3404,1.3404,0,0,1.2899,1.2933,1.2958,1.302,1.3049,1.3092,1.308,1.3126,1.3158,1.3165,1.3222,1.3246,1.3288,1.3349,1.3377,1.337,1.3465,1.3441,1.3443,1.3447,1.348,1.3488,1.3494,1.3407,1.3406,1.3406,0,0,1.295,1.2979,1.3025,1.3054,1.3098,1.3118,1.3129,1.3175,1.319,1.3248,1.3254,1.3292,1.3366,1.3396,1.3421,1.3482,1.3485,1.3495,1.3519,1.3552,1.3558,1.3564,1.3585,1.3593,1.3501,1.3501,1.3501,0,1.2964,1.3028,1.3048,1.3093,1.312,1.3129,1.3175,1.3202,1.3258,1.3276,1.3267,1.336,1.3389,1.3457,1.3472,1.3492,1.3505,1.349,1.3556,1.3562,1.3567,1.3588,1.3596,1.3502,1.3501,1.3501,1.3501,0,1.3042,1.3087,1.3118,1.3171,1.3202,1.3248,1.3274,1.3303,1.3312,1.3333,1.3391,1.3427,1.3476,1.3493,1.3503,1.3562,1.3556,1.3551,1.3534,1.3575,1.3595,1.3603,1.3503,1.3503,1.3502,1.3502,0,0,1.3096,1.3159,1.317,1.3194,1.3243,1.3278,1.3324,1.3371,1.3395,1.3433,1.3472,1.3534,1.353,1.3558,1.3571,1.3601,1.3646,1.3592,1.3594,1.36,1.3713,1.3715,1.3724,1.3648,1.365,1.3651,1.3709,0,1.3151,1.3232,1.3251,1.3321,1.3362,1.3371,1.3411,1.3445,1.3466,1.3504,1.3527,1.357,1.3562,1.3579,1.3608,1.3634,1.3669,1.363,1.3684,1.3686,1.3673,1.3735,1.3738,1.3791,1.3717,1.3718,1.3719,0,1.3226,1.3266,1.3339,1.3383,1.3401,1.3436,1.3481,1.3517,1.3556,1.3569,1.3601,1.3611,1.3659,1.364,1.3706,1.3679,1.3703,1.3718,1.3721,1.3726,1.3705,1.3741,1.3808,1.3816,1.3732,1.3731,1.373,0,1.3257,1.3328,1.3381,1.3402,1.3454,1.3479,1.3501,1.3539,1.3566,1.3606,1.3624,1.3668,1.3692,1.3727,1.3748,1.3733,1.3812,1.3796,1.3824,1.3824,1.384,1.3839,1.3911,1.3856,1.3856,1.3856,1.3856,0,1.3316,1.3361,1.3396,1.3428,1.3479,1.35,1.3549,1.3572,1.3606,1.3643,1.3654,1.3688,1.3715,1.3754,1.3771,1.3823,1.3834,1.3845,1.3849,1.3844,1.3843,1.3859,1.3856,1.3858,1.3858,1.3857,1.3857,0,1.3358,1.3384,1.3442,1.3487,1.3499,1.3534,1.3572,1.3604,1.3625,1.3672,1.3684,1.3717,1.3763,1.3788,1.3846,1.3857,1.3915,1.3917,1.3901,1.3903,1.393,1.3927,1.4015,1.4028,1.3965,1.3966,1.3966,0,1.3394,1.3429,1.3477,1.3502,1.3526,1.3567,1.3595,1.3617,1.3646,1.3693,1.3719,1.3765,1.3803,1.3876,1.3905,1.3949,1.3952,1.398,1.3959,1.3952,1.3952,1.3949,1.3952,1.3984,1.3984,1.3985,1.3985,0,1.3455,1.3466,1.3505,1.3549,1.3582,1.3618,1.3653,1.3673,1.3702,1.3733,1.378,1.3809,1.3868,1.3913,1.3959,1.3983,1.3989,1.3991,1.4,1.3995,1.3984,1.399,1.3911,1.3989,1.3989,1.3989,1.3988,1.3988,1.3495,1.3526,1.3564,1.3608,1.3637,1.3669,1.3701,1.3726,1.3766,1.3815,1.3826,1.3875,1.3913,1.3975,1.4,1.4039,1.4034,1.4047,1.405,1.4053,1.4053,1.3978,1.4048,1.4047,1.4047,1.4047,1.4047,0,1.3556,1.3581,1.3621,1.367,1.3704,1.3706,1.3745,1.3774,1.3817,1.3852,1.3889,1.3942,1.3986,1.4019,1.4064,1.4089,1.4092,1.41,1.4098,1.4103,1.4056,1.4043,1.4096,1.4096,1.4096,1.4096,1.4096,1.4096,1.3592,1.3644,1.3659,1.3725,1.375,1.3798,1.382,1.385,1.3878,1.3937,1.3974,1.3995,1.4029,1.4076,1.4117,1.4125,1.4141,1.4148,1.4157,1.4112,1.4106,1.4101,1.409,1.4151,1.4152,1.4201,1.4201,1.4202]},{"header":{"parameterUnit":"m.s-1","parameterCategory":1,"la1":30.2991,"la2":30.254,"lo1":-89.0895,"lo2":-89.0444,"dy":0.0017,"dx":0.0017,"nx":28,"ny":28,"refTime":"2025-04-25T09:00:00:Z","depth":0,"parameterNumber":3,"parameterNumberName":"V-component_of_WINDS"},"data":[0,0,0,0,0,0,0,0,0,0,0,0,0,0,0,0,0,0,0,0,0,0,0,0,0,0,0,0,0,0,0,0,0,0,0,0,0,0,0,0,0,0,0,0,0,0,0,0,0,0,0,0,0,0,0,0,0,0,0.7498,0.7498,0,0.7497,0.7497,0.7497,0.7472,0.7471,0.747,0.747,0.7469,0.747,0.747,0,0,0,0,0,0,0,0,0,0,0,0,0,0.7478,0.7478,0.7498,0.7498,0.7498,0.7497,0.7497,0.7497,0.7472,0.7471,0.747,0.7469,0.7469,0.747,0.747,0,0,0,0,0,0,0,0,0,0,0,0,0,0.7483,0.7478,0.7498,0.7485,0.7484,0.7497,0.7497,0.7497,0.7472,0.7471,0.747,0.7469,0.7469,0.747,0.747,0.7496,0,0,0.7473,0.7474,0,0,0,0,0,0,0,0,0.7482,0.7483,0.7487,0.7486,0.7485,0.7483,0.749,0.7497,0.7472,0.7476,0.747,0.7468,0.7475,0.7475,0.7477,0.7496,0.7496,0.7473,0.7474,0.7474,0.7474,0,0,0,0,0,0,0,0.7482,0.7483,0.7498,0.7487,0.7486,0.7479,0.7479,0.7491,0.7481,0.7476,0.7474,0.7474,0.7474,0.7476,0.7477,0.7496,0.7473,0.7474,0.7475,0.7475,0.7535,0.7536,0,0,0,0,0,0,0.7483,0.7483,0.7498,0.7498,0.7481,0.7481,0.748,0.7485,0.7481,0.7479,0.7475,0.7473,0.7475,0.7476,0.7477,0.7506,0.7474,0.7475,0.7476,0.7534,0.7535,0.7536,0,0,0,0,0,0,0.7483,0.7485,0.7498,0.749,0.7491,0.7482,0.7488,0.7485,0.7488,0.748,0.7479,0.7479,0.7474,0.7475,0.7491,0.7506,0.7475,0.7476,0.7533,0.7534,0.7536,0.7565,0,0,0,0,0,0,0.7483,0.7485,0.7495,0.749,0.7492,0.7512,0.7488,0.7486,0.7489,0.7487,0.7484,0.7482,0.7474,0.749,0.7492,0.7506,0.7477,0.7531,0.7534,0.7535,0.7563,0.7568,0.7572,0,0,0,0,0,0.7482,0.7503,0.7495,0.7497,0.7503,0.7513,0.7514,0.7503,0.7491,0.75,0.7495,0.7483,0.7504,0.7492,0.7494,0.7509,0.7531,0.7533,0.7535,0.7561,0.7567,0.7572,0,0,0,0,0,0,0.751,0.7502,0.7494,0.7514,0.7514,0.7509,0.7521,0.751,0.7514,0.7511,0.7498,0.7498,0.7516,0.7514,0.7501,0.7533,0.7515,0.7518,0.7534,0.7539,0.7543,0.7544,0.7478,0,0,0,0,0,0.7518,0.7527,0.752,0.7539,0.7539,0.753,0.7534,0.7526,0.7526,0.7526,0.7522,0.7523,0.7529,0.7534,0.754,0.7562,0.7561,0.7574,0.7578,0.7582,0.7584,0.7596,0.7601,0.7544,0.7544,0.7544,0,0,0.7536,0.7533,0.7539,0.7544,0.7544,0.7553,0.753,0.7541,0.7548,0.7527,0.7542,0.7539,0.7539,0.7558,0.7566,0.7557,0.76,0.7585,0.7588,0.7588,0.7599,0.7605,0.7609,0.7546,0.7546,0.7545,0,0,0.7573,0.7572,0.7587,0.7587,0.7586,0.7579,0.7583,0.7579,0.7576,0.7591,0.7576,0.7583,0.7595,0.7595,0.7597,0.7633,0.7622,0.7636,0.7659,0.767,0.7675,0.7679,0.7692,0.7696,0.7638,0.7639,0.7639,0,0.7596,0.7609,0.7596,0.7608,0.761,0.7592,0.7607,0.7607,0.7609,0.7611,0.76,0.7614,0.7613,0.7632,0.7641,0.7643,0.7647,0.7636,0.7675,0.7679,0.7682,0.7695,0.7699,0.764,0.764,0.764,0.764,0,0.7636,0.7645,0.7658,0.7659,0.7663,0.7676,0.7666,0.7671,0.7662,0.7657,0.7672,0.7669,0.7674,0.7678,0.7669,0.7695,0.769,0.7677,0.7659,0.769,0.7701,0.7706,0.7643,0.7642,0.7642,0.7641,0,0,0.7691,0.7685,0.769,0.769,0.7687,0.7694,0.7707,0.7711,0.7716,0.7717,0.7727,0.7737,0.7726,0.7728,0.7719,0.7729,0.7758,0.7715,0.7715,0.7723,0.7786,0.7796,0.7802,0.775,0.7751,0.7751,0.7786,0,0.7727,0.7748,0.7737,0.7759,0.7767,0.775,0.776,0.776,0.7755,0.7761,0.7756,0.7763,0.7747,0.7749,0.7758,0.7753,0.777,0.775,0.7759,0.776,0.776,0.7807,0.7818,0.7851,0.7791,0.7792,0.7792,0,0.7772,0.7775,0.7798,0.7793,0.7796,0.7806,0.7809,0.7815,0.7814,0.781,0.7812,0.78,0.7812,0.7794,0.7809,0.7796,0.7799,0.7797,0.7798,0.7799,0.7778,0.781,0.7861,0.7866,0.7799,0.7798,0.7798,0,0.781,0.782,0.7834,0.7835,0.783,0.7837,0.7835,0.7833,0.7836,0.7839,0.7841,0.7845,0.7847,0.7851,0.7841,0.7828,0.7858,0.7839,0.7855,0.7855,0.7862,0.7862,0.7915,0.7864,0.7864,0.7864,0.7864,0,0.7852,0.7866,0.7851,0.7861,0.7876,0.7863,0.788,0.7876,0.7874,0.7882,0.7867,0.7875,0.7861,0.7868,0.786,0.7875,0.7876,0.7873,0.7871,0.7874,0.7875,0.7877,0.7874,0.7865,0.7865,0.7865,0.7865,0,0.7897,0.7888,0.7903,0.7896,0.7895,0.7907,0.7902,0.791,0.7904,0.7914,0.7916,0.7906,0.7913,0.7904,0.791,0.7904,0.7924,0.7918,0.7925,0.7923,0.794,0.7939,0.7996,0.8003,0.7948,0.7948,0.7949,0,0.7924,0.7935,0.793,0.7934,0.7933,0.794,0.7943,0.793,0.7934,0.7933,0.7942,0.7947,0.7951,0.7963,0.7957,0.7961,0.7956,0.7975,0.7956,0.7959,0.7956,0.7956,0.7957,0.798,0.798,0.7981,0.7981,0,0.7974,0.7968,0.7973,0.7976,0.798,0.7982,0.7983,0.7987,0.7974,0.7979,0.7986,0.7988,0.7994,0.8,0.8003,0.8001,0.7989,0.7987,0.7991,0.7995,0.7999,0.7997,0.7936,0.7986,0.7986,0.7985,0.7985,0.7985,0.8011,0.802,0.8017,0.8023,0.8022,0.8023,0.803,0.8024,0.803,0.8033,0.8026,0.8034,0.8032,0.8035,0.8034,0.8041,0.8032,0.8038,0.804,0.8041,0.8044,0.7997,0.8041,0.8041,0.8041,0.8041,0.8041,0,0.8059,0.8057,0.8062,0.8063,0.8068,0.8056,0.8056,0.806,0.8068,0.8067,0.8071,0.8079,0.8084,0.8078,0.8082,0.8088,0.8083,0.809,0.809,0.8089,0.8051,0.8048,0.8094,0.8094,0.8094,0.8094,0.8094,0.8094,0.8085,0.8099,0.8093,0.8107,0.8104,0.8112,0.8113,0.8114,0.8113,0.8122,0.8126,0.8122,0.8119,0.8123,0.8127,0.8125,0.8127,0.8136,0.8133,0.8097,0.8092,0.8087,0.8083,0.8137,0.8137,0.817,0.817,0.8171]}]]